EHI
0 0 0 0 0 0 0 0 0 0 0 0 0 0 0 0 0 0 0 0 0 0 0 0 0 0 0 0 0 0 0 0 0 0 0 0 0 0 0 0 0 0 0 0
0 0 0 0 0 0 0 0 0 0 0 0 0 0 0 0 0 0 0 0 0 0 0 0 0 0 0 0 0 0 0 0 0 0 0 0 0 0 0 0 0 0 0 0
0 0 0 0 0 0 0 0 0 0 0 0 0 0 0 0 0 0 0 0 0 0 0 0 0 0 0 0 0 0 0 0 0 0 0 0 0 0 0 0 0 0 0 0
0 0 0 0 0 0 0 0 0 0 0 0 0 0 0 0 0 0 0 0 0 0 0 0 0 0 0 0 0 0 0 0 0 0 0 0 0 0 0 0 0 0 0 0
0 0 0 0 0 0 0 0 0 0 0 0 0 0 0 0 0 0 0 0 0 0 0 0 0 0 0 0 0 0 0 0 0 0 0 0 0 0 0 0 0 0 0 0
0 0 0 0 0 0 0 0 0 0 0 0 0 0 0 0 0 0 0 0 0 0 0 0 0 0 0 0 0 0 0 0 0 0 0 0 0 0 0 0 0 0 0 0
0 0 0 0 0 0 0 0 0 0 0 0 0 0 0 0 0 0 0 0 0 0 0 0 0 0 0 0 0 0 0 0 0 0 0 0 0 0 0 0 0 0 0 0
0 0 0 0 0 0 0 0 0 0 0 0 0 0 0 0 0 0 0 0 0 0 0 0 0 0 0 0 0 0 0 0 0 0 0 0 0 0 0 0 0 0 0 0
0 0 0 0 0 0 0 0 0 0 0 0 0 0 0 0 0 0 0 0 0 0 0 0 0 0 0 0 0 0 0 0 0 0 0 0 0 0 0 0 0 0 0 0
0 0 0 0 0 0 0 0 0 0 0 0 0 0 0 0 0 0 0 0 0 0 0 0 0 0 0 0 0 0 0 0 0 0 0 0 0 0 0 0 0 0 0 0
0 0 0 0 0 0 0 0 0 0 0 0 0 0 0 0 0 0 0 0 0 0 0 0 0 0 0 0 0 0 0 0 0 0 0 0 0 0 0 0 0 0 0 0
0 0 0 0 0 0 0 0 0 0 0 0 0 0 0 0 0 0 0 0 0 0 0 0 0 0 0 0 0 0 0 0 0 0 0 0 0 0 0 0 0 0 0 0
0 0 0 0 0 0 0 0 0 0 0 0 0 0 0 0 0 0 0 0 0 0 0 0 0 0 0 0 0 0 0 0 0 0 0 0 0 0 0 0 0 0 0 0
0 0 0 0 0 0 0 0 0 0 0 0 0 0 0 0 0 0 0 0 0 0 0 0 0 0 0 0 0 0 0 0 0 0 0 0 0 0 0 0 0 0 0 0
0 0 0 0 0 0 0 0 0 0 0 0 0 0 0 0 0 0 0 0 0 0 0 0 0 0 0 0 0 0 0 0 0 0 0 0 0 0 0 0 0 0 0 0
0 0 0 0 0 0 0 0 0 0 0 0 0 0 0 0 0 0 0 0 0 0 0 0 0 0 0 0 0 0 0 0 0 0 0 0 0 0 0 0 0 0 0 0
0 0 0 0 0 0 0 0 0 0 0 0 0 0 0 0 0 0 0 0 0 0 0 0 0 0 0 0 0 0 0 0 0 0 0 0 0 0 0 0 0 0 0 0
0 0 0 0 0 0 0 0 0 0 0 0 0 0 0 0 0 0 0 0 0 0 0 0 0 0 0 0 0 0 0 0 0 0 0 0 0 0 0 0 0 0 0 0
0 0 0 0 0 0 0 0 0 0 0 0 0 0 0 0 0 0 0 0 0 0 0 0 0 0 0 0 0 0 0 0 0 0 0 0 0 0 0 0 0 0 0 0
0 0 0 0 0 0 0 0 0 0 0 0 0 0 0 0 0 0 0 0 0 0 0 0 0 0 0 0 0 0 0 0 0 0 0 0 0 0 0 0 0 0 0 0
0 0 0 0 0 0 0 0 0 0 0 0 0 0 0 0 0 0 0 0 0 0 0 0 0 0 0 0 0 0 0 0 0 0 0 0 0 0 0 0 0 0 0 0
0 0 0 0 0 0 0 0 0 0 0 0 0 0 0 0 0 0 0 0 0 0 0 0 0 0 0 0 0 0 0 0 0 0 0 0 0 0 0 0 0 0 0 0
0 0 0 0 0 0 0 0 0 0 0 0 0 0 0 0 0 0 0 0 0 0 0 0 0 0 0 0 0 0 0 0 0 0 0 0 0 0 0 0 0 0 0 0
0 0 0 0 0 0 0 0 0 0 0 0 0 0 0 0 0 0 0 0 0 0 0 0 0 0 0 0 0 0 0 0 0 0 0 0 0 0 0 0 0 0 0 0
0 0 0 0 0 0 0 0 0 0 0 0 0 0 0 0 0 0 0 0 0 0 0 0 0 0 0 0 0 0 0 0 0 0 0 0 0 0 0 0 0 0 0 0
0 0 0 0 0 0 0 0 0 0 0 0 0 0 0 0 0 0 0 0 0 0 0 0 0 0 0 0 0 0 0 0 0 0 0 0 0 0 0 0 0 0 0 0
0 0 0 0 0 0 0 0 0 0 0 0 0 0 0 0 0 0 0 0 0 0 0 0 0 0 0 0 0 0 0 0 0 0 0 0 0 0 0 0 0 0 0 0
Wind_Speed
9 9 7 10 12 10 11 11 10 11 12 13 10 9 9 8 8 8 7 7 7 6 5 5 4 3 3 3 4 6 8 9 11 11 11 11 11 12 12 12 12 12 11 10
8 9 10 13 14 13 14 12 13 13 14 9 9 7 7 7 7 8 7 7 7 7 6 5 5 4 3 3 3 5 7 8 8 9 9 10 11 11 11 11 11 11 11 11
6 5 6 11 11 12 10 8 8 11 11 7 8 8 7 6 6 7 8 8 7 7 6 6 6 5 4 4 3 4 6 6 7 9 9 10 10 10 11 11 11 11 11 11
4 2 9 8 3 6 8 8 7 7 7 7 9 8 6 4 5 7 7 8 7 7 7 7 6 6 5 3 3 4 5 5 6 8 8 8 9 10 10 9 10 10 10 10
3 5 9 7 4 3 5 6 5 6 7 8 8 5 4 4 5 5 7 8 7 7 7 6 6 5 4 2 2 3 4 5 6 8 9 9 9 9 8 9 8 8 9 10
4 4 7 6 4 2 2 5 4 4 6 6 4 3 5 5 6 7 7 7 7 6 6 5 5 4 3 2 2 3 4 5 6 8 9 9 9 8 6 7 8 8 7 8
7 7 9 7 4 1 4 6 3 3 4 4 4 6 7 7 6 6 7 8 7 6 5 5 5 3 3 2 3 3 2 3 5 7 8 8 7 6 7 7 7 7 8 6
6 7 10 4 2 4 6 4 3 3 4 5 6 7 7 7 7 6 7 7 7 6 6 5 4 3 3 3 3 1 2 4 5 6 6 6 8 7 7 8 8 8 7 6
9 10 6 3 5 5 4 4 4 5 5 6 7 8 8 7 7 6 6 7 6 6 6 5 4 3 4 4 2 1 2 4 5 6 6 7 8 8 7 7 7 6 6 6
7 9 8 7 7 6 5 6 6 6 7 6 7 8 8 8 7 6 6 6 6 6 6 6 5 5 4 3 1 2 3 4 5 6 6 6 6 7 7 7 7 7 7 6
8 9 8 9 9 9 8 7 7 7 7 7 8 8 8 7 7 6 6 6 5 5 6 7 6 6 5 3 1 2 3 4 5 5 6 5 4 4 5 5 7 9 7 7
10 8 7 8 7 7 8 8 8 8 9 8 7 9 8 7 6 6 6 6 6 5 6 6 6 6 5 4 2 2 3 4 4 4 4 4 5 3 3 4 8 9 9 8
12 9 9 11 10 9 9 10 9 9 9 9 8 7 7 7 6 6 6 6 6 6 6 6 5 5 5 4 2 2 3 4 3 4 5 5 5 5 4 5 6 8 10 11
10 8 9 9 9 9 9 9 9 9 8 8 7 7 7 7 6 6 7 7 6 6 6 5 6 5 4 4 2 2 3 4 4 4 4 5 5 5 5 6 5 3 6 11
9 8 10 9 8 8 7 6 7 8 7 7 6 7 7 7 7 7 7 6 5 5 5 5 5 5 4 3 2 2 2 3 3 4 4 4 4 5 5 5 5 5 4 6
7 7 7 8 9 8 7 6 7 8 7 7 7 7 7 7 7 7 6 5 5 6 6 5 5 5 4 3 2 1 2 4 4 4 4 4 5 5 5 6 5 5 6 6
5 6 6 7 8 8 7 7 8 8 7 7 7 7 7 6 6 7 6 5 5 6 6 5 5 4 3 3 2 2 2 4 5 4 4 4 5 5 5 6 5 5 5 6
7 7 7 6 6 7 8 7 7 7 7 7 7 6 6 6 7 7 6 5 4 5 5 5 4 3 3 3 2 2 2 3 3 4 4 4 4 4 5 5 6 6 5 6
5 5 6 6 6 6 7 8 8 7 7 6 6 6 6 6 6 6 6 5 5 6 5 4 5 4 3 3 3 2 3 3 3 4 4 5 4 4 5 5 6 6 6 6
4 5 5 6 6 6 7 7 7 7 6 6 6 6 7 6 5 5 5 5 5 5 4 4 3 3 3 3 3 2 3 4 4 4 4 4 5 5 5 5 6 6 6 6
5 5 6 6 7 7 7 7 7 8 7 6 7 7 7 6 5 5 4 5 5 4 4 5 3 3 2 3 3 3 4 4 4 4 4 5 5 5 5 5 6 6 6 5
4 5 6 6 7 8 7 6 6 7 8 7 7 6 6 6 6 5 5 5 4 4 3 3 3 4 4 4 3 4 4 4 4 4 4 5 5 5 5 5 5 5 5 5
5 5 6 7 7 8 8 6 6 7 7 7 7 6 6 6 5 4 5 3 3 4 3 2 4 5 6 3 3 4 4 4 4 4 4 5 5 5 5 6 5 5 6 6
5 6 6 7 6 7 8 7 6 6 6 7 6 6 6 5 4 4 3 4 5 4 2 3 4 6 5 3 4 4 4 4 4 4 4 4 4 5 5 5 5 5 5 6
5 6 6 6 6 6 6 6 6 6 6 5 5 5 4 4 4 3 2 3 4 3 1 2 4 4 3 3 3 4 4 4 5 5 5 5 5 5 5 5 6 6 6 6
5 5 5 6 5 5 5 5 5 5 5 5 4 3 3 2 2 2 2 2 2 2 1 1 2 3 2 3 3 3 4 4 5 4 5 5 5 6 5 6 7 6 6 6
5 4 4 4 4 4 4 5 5 5 5 5 4 3 2 2 1 1 1 1 1 1 1 1 2 2 3 3 3 3 3 4 4 4 5 5 5 5 6 7 6 6 6 6
Wind_Direction
251 260 258 259 264 253 233 227 236 256 265 279 293 296 302 311 316 321 325 329 330 327 324 323 310 290 260 235 215 197 190 195 198 195 192 189 187 186 184 184 185 184 183 185
264 255 258 264 257 249 245 239 242 258 268 275 282 291 301 308 317 318 320 323 326 327 325 322 315 302 284 253 226 199 192 196 192 185 184 185 185 181 179 181 181 180 184 184
270 284 283 259 243 235 233 231 232 248 262 290 293 296 296 303 313 313 316 316 316 317 315 312 307 299 279 252 219 199 193 188 184 179 181 183 178 175 179 180 178 181 184 183
269 300 248 250 234 234 239 246 244 261 287 292 285 283 280 289 303 310 316 313 312 311 309 308 307 306 292 258 202 191 187 182 178 176 176 173 174 178 179 176 179 182 183 183
227 250 270 281 264 224 226 251 242 260 290 304 301 298 291 311 312 303 303 303 300 296 295 301 304 306 300 268 200 183 183 182 179 175 172 171 175 177 175 172 175 177 177 178
214 237 254 261 267 262 189 258 255 256 279 301 325 295 287 317 313 311 311 311 309 306 305 309 307 311 297 259 200 200 198 190 180 173 171 175 176 171 163 165 169 166 169 175
223 240 261 261 267 136 191 246 277 269 277 285 268 257 280 298 302 304 306 308 313 316 312 309 310 312 304 268 232 223 190 175 171 169 169 168 163 158 155 154 157 162 164 168
201 224 249 249 161 194 231 257 269 272 268 272 281 288 292 296 295 301 309 314 320 319 313 314 317 317 310 281 260 201 161 164 164 158 154 153 152 153 154 156 159 159 157 155
203 223 241 219 219 237 243 257 263 262 269 272 283 289 295 295 296 301 305 311 317 311 312 316 320 315 296 293 278 175 156 164 160 152 153 157 157 156 155 159 161 162 160 160
245 255 256 258 261 264 253 252 260 263 270 271 274 278 285 291 293 296 302 305 313 315 316 316 318 313 298 297 267 178 170 165 158 156 153 154 156 159 161 166 164 162 163 163
247 262 278 265 253 257 262 265 272 277 274 269 270 274 275 279 284 290 295 299 301 302 305 306 312 313 315 311 276 179 170 164 160 159 155 153 150 160 166 177 175 168 170 168
239 234 235 257 258 259 266 271 273 277 279 275 263 267 273 273 275 282 289 293 296 299 303 308 314 312 312 308 273 188 174 168 162 156 152 148 140 117 105 150 157 161 164 164
242 251 251 262 268 265 267 273 275 271 268 271 269 263 266 269 272 277 282 285 287 292 299 303 303 303 303 297 272 210 184 172 165 160 157 155 153 151 137 106 119 140 149 152
245 257 264 262 266 271 268 272 275 273 268 263 263 266 267 268 271 273 274 278 282 286 290 292 294 294 298 294 273 232 185 173 170 163 158 160 159 156 153 153 146 129 139 148
244 244 252 268 274 274 274 276 278 279 278 271 261 261 264 266 269 271 271 274 275 275 280 283 284 289 297 289 256 230 191 170 162 154 152 155 153 149 146 145 147 145 136 140
266 264 258 263 268 273 275 273 271 274 274 272 271 267 265 265 269 272 271 266 261 267 275 278 277 281 291 287 253 223 189 170 165 156 154 155 156 154 153 152 153 156 156 153
260 266 266 272 273 275 272 267 267 272 274 271 272 274 272 271 272 274 272 263 257 261 265 265 268 275 278 267 237 199 174 163 159 155 161 164 163 163 161 159 160 160 158 163
241 250 255 261 270 278 283 282 278 277 275 274 275 273 270 267 268 274 278 273 264 265 261 258 257 262 265 257 231 188 171 167 162 160 161 163 160 159 158 158 157 156 153 157
262 264 270 270 269 271 275 280 281 280 280 277 273 271 269 266 265 270 274 264 254 262 266 253 253 252 250 236 222 180 162 156 156 156 155 157 157 158 159 159 158 160 157 156
283 282 282 283 282 278 280 284 284 282 279 276 273 272 270 267 264 265 265 259 251 249 251 250 250 243 235 215 199 165 159 160 160 156 154 159 162 163 162 159 158 158 158 160
297 296 294 293 292 289 286 285 284 281 279 273 268 267 269 272 267 259 257 264 264 249 249 253 245 233 221 191 177 164 163 163 162 162 162 162 161 161 160 158 158 158 158 157
302 300 299 298 297 297 296 290 283 281 280 275 268 266 267 270 266 259 251 249 259 254 249 240 230 222 205 181 168 163 163 162 162 161 163 165 164 162 160 157 156 156 154 153
296 296 297 298 296 296 297 291 284 281 278 274 270 266 262 262 259 253 262 255 249 249 245 236 224 212 191 171 164 163 162 161 161 162 163 164 161 159 157 155 154 154 153 150
296 296 296 297 297 297 298 298 293 286 281 277 271 263 257 259 264 255 253 256 254 254 239 224 212 195 175 163 162 163 162 160 158 157 155 153 151 151 152 151 150 152 151 149
292 292 293 295 295 292 293 298 300 295 291 283 277 269 258 249 253 259 246 238 240 247 231 213 197 177 159 153 158 160 159 160 156 152 151 151 151 151 150 149 150 151 151 149
288 287 285 282 281 287 291 292 291 291 292 289 285 276 267 260 250 250 245 232 214 212 199 178 165 155 143 143 143 142 140 143 145 145 144 144 146 147 146 145 144 147 146 144
286 286 290 293 290 286 287 286 284 285 283 279 278 281 272 260 246 236 225 202 175 162 136 133 133 132 130 129 126 123 122 124 127 129 131 134 137 140 141 141 142 141 140 141